Vorticity
nan nan nan nan nan nan nan nan nan nan nan nan nan nan nan nan nan nan nan nan nan nan nan nan nan nan nan nan nan nan nan nan nan nan nan nan nan nan nan nan nan nan nan nan
nan 11 7 3 10 15 7 5 7 6 6 6 8 9 6 18 5 9 12 8 5 6 5 5 6 7 7 6 7 8 8 8 11 9 10 9 10 9 8 7 6 6 8 nan
nan 5 17 10 7 8 5 6 8 9 9 7 17 16 19 7 8 9 6 4 6 5 8 8 6 5 5 6 7 7 6 7 8 11 12 13 11 6 6 9 7 5 8 nan
nan 5 8 8 7 6 7 16 8 10 7 7 8 12 24 7 6 5 4 4 5 8 6 4 5 6 8 8 8 6 5 9 8 9 11 11 10 8 8 8 5 7 7 nan
nan 19 10 7 10 6 12 14 12 8 6 7 -2 5 7 15 12 7 8 7 5 5 6 6 7 7 8 8 9 8 8 9 7 8 10 9 10 11 9 7 7 10 7 nan
nan 12 14 11 16 8 11 10 9 8 10 12 20 7 9 24 13 11 9 7 8 5 5 6 7 7 7 7 7 7 9 8 8 10 9 9 9 10 10 9 11 9 8 nan
nan 4 3 13 9 11 6 1 7 11 7 6 18 14 16 19 12 14 12 7 8 7 5 6 6 6 6 6 9 8 8 7 8 9 8 9 10 10 10 10 9 10 11 nan
nan 11 13 7 1 6 11 -0 0 4 1 8 6 5 15 10 12 8 10 12 8 6 6 5 4 6 8 8 8 8 9 8 8 9 9 9 11 12 9 10 11 9 10 nan
nan 17 13 10 9 4 11 6 3 7 11 10 1 7 8 6 6 5 8 8 6 6 7 5 5 6 6 9 8 8 9 9 8 9 10 9 9 10 10 10 13 11 9 nan
nan 14 9 11 10 12 7 10 11 10 12 11 6 8 15 17 3 6 8 6 7 7 6 5 6 6 9 8 7 8 9 9 9 10 10 9 9 9 11 9 9 11 10 nan
nan 9 10 6 11 7 4 4 2 9 5 6 9 8 20 19 11 10 8 9 9 7 5 6 8 7 7 8 8 8 8 9 10 9 9 9 9 9 9 9 9 9 8 nan
nan 8 11 1 4 8 10 6 2 2 5 0 9 12 13 11 11 13 12 13 9 6 6 7 7 7 6 7 7 9 9 9 10 10 9 9 9 9 9 9 8 9 9 nan
nan 7 9 5 6 19 18 10 5 -0 10 6 5 5 -2 9 9 10 15 18 8 9 7 6 7 7 7 8 8 8 8 9 10 9 9 8 8 9 9 10 9 9 10 nan
nan 13 8 8 2 10 13 14 9 13 8 12 7 2 1 1 -0 12 20 16 8 9 7 6 7 7 8 8 9 8 7 8 8 9 9 9 9 9 9 9 9 9 9 nan
nan 16 11 5 9 0 -2 7 8 10 6 5 7 10 5 -3 17 16 11 9 9 9 8 7 7 8 8 8 8 8 9 9 10 9 8 9 9 9 9 9 10 10 9 nan
nan 5 8 4 12 5 9 7 6 7 8 2 5 7 6 6 6 20 21 8 9 8 9 9 9 7 8 8 8 8 8 8 9 9 9 9 9 9 9 10 10 9 9 nan
nan 11 15 19 14 9 16 12 8 11 9 9 9 9 8 10 19 23 14 14 11 11 11 9 8 9 8 9 9 8 9 8 8 10 9 9 8 8 9 10 10 9 9 nan
nan 8 10 13 14 15 13 19 14 14 16 13 11 9 10 11 17 23 25 17 14 15 13 10 8 10 9 8 8 9 8 9 9 8 8 9 10 10 10 9 10 10 9 nan
nan 0 6 8 8 7 10 10 15 18 11 10 11 13 12 22 15 15 23 19 15 16 12 11 12 9 9 9 8 10 9 9 8 7 8 10 10 10 10 9 9 10 10 nan
nan 11 5 6 10 9 6 -2 4 18 20 19 17 14 18 20 9 15 15 14 15 13 13 10 10 11 10 11 12 9 8 7 8 11 11 9 8 9 9 10 9 10 9 nan
nan 19 13 7 6 8 11 19 15 8 10 14 22 23 28 9 14 23 16 12 12 11 10 10 7 7 8 10 11 11 11 9 8 7 7 9 10 9 9 9 9 10 10 nan
nan 10 13 11 12 14 16 22 6 6 16 10 14 18 19 16 15 9 12 11 10 10 10 8 7 10 11 9 7 8 8 8 10 10 8 9 9 9 9 9 10 9 9 nan
nan 4 10 11 14 15 14 12 9 7 9 13 14 18 15 9 8 10 8 8 9 9 9 8 10 10 10 10 8 9 9 9 7 7 8 9 9 9 9 8 10 11 10 nan
nan 14 5 6 10 13 10 8 8 10 11 14 16 15 11 10 9 8 9 9 9 10 10 9 9 9 9 9 11 12 10 8 7 8 8 6 7 8 12 12 8 9 11 nan
nan 9 15 10 13 12 15 11 10 10 12 14 14 14 12 10 10 9 8 8 9 11 10 10 10 10 10 10 9 9 10 9 9 9 8 8 9 9 6 5 12 14 10 nan
nan nan nan nan nan nan nan nan nan nan nan nan nan nan nan nan nan nan nan nan nan nan nan nan nan nan nan nan nan nan nan nan nan nan nan nan nan nan nan nan nan nan nan nan
CAPE
0 0 0 0 0 0 0 0 0 0 0 0 0 0 0 0 0 0 0 0 0 0 0 0 0 0 0 0 0 0 0 0 0 0 0 0 0 0 0 0 0 0 1 7
0 0 0 0 0 0 0 0 0 0 0 0 0 0 0 0 0 0 0 0 0 0 0 0 0 1 3 2 0 0 0 0 0 0 0 0 0 0 0 0 0 0 2 4
0 0 0 0 0 0 0 0 0 0 0 0 0 0 0 0 0 0 0 0 0 0 0 0 1 7 8 6 7 5 4 2 0 0 0 0 0 0 0 0 0 0 4 5
0 0 0 0 0 0 0 0 0 0 0 0 0 0 0 0 0 0 0 0 0 0 0 0 2 3 2 4 4 3 4 2 2 3 2 1 0 0 4 1 1 1 2 6
0 0 0 0 0 0 0 0 0 0 0 0 0 0 0 0 0 0 0 0 0 0 0 0 3 1 2 4 6 5 5 5 5 3 5 1 2 2 2 2 6 4 4 2
0 0 0 0 0 0 0 0 0 0 0 0 0 0 0 0 1 3 0 0 0 0 1 2 1 0 4 3 3 3 2 3 6 7 6 6 7 5 3 5 5 9 6 8
0 0 0 0 0 0 0 0 0 2 15 0 0 0 0 0 0 0 0 0 0 1 4 2 3 3 2 2 3 1 2 3 5 6 6 7 7 9 6 5 5 7 11 11
0 0 0 0 0 0 0 0 0 0 0 0 0 0 0 0 0 0 0 0 0 3 5 4 2 1 1 1 2 4 3 4 5 5 6 5 8 7 9 7 8 9 11 11
0 0 0 0 0 0 0 2 0 4 0 0 0 0 0 0 0 0 0 0 2 6 7 5 2 1 0 0 4 6 5 4 4 3 5 5 3 5 7 7 10 8 8 8
0 5 0 0 0 0 0 1 4 12 0 2 0 1 29 0 0 0 0 0 3 5 4 4 1 0 0 1 2 5 4 4 5 3 3 6 7 8 4 6 7 10 9 9
0 0 0 0 0 0 0 1 11 38 25 19 5 6 14 44 2 0 0 0 1 4 6 5 2 0 0 1 3 4 4 5 2 3 2 4 5 7 7 7 9 12 9 6
1 0 0 7 1 0 10 25 18 150 10 77 80 31 20 0 10 2 0 0 1 8 5 4 1 0 0 0 2 3 4 2 3 4 3 6 5 4 6 7 7 9 12 4
51 52 43 3 2 31 35 15 56 74 108 44 105 24 3 1 6 27 10 1 3 5 6 2 0 0 0 1 2 3 4 3 5 5 5 6 4 3 2 2 4 4 3 3
78 67 22 18 9 37 25 40 34 60 134 64 90 52 55 13 19 58 18 0 0 4 4 1 0 0 0 1 3 5 3 3 4 2 2 2 0 0 0 1 2 3 2 2
47 63 32 26 33 0 1 24 22 65 69 120 57 36 51 79 19 98 33 2 2 4 3 1 0 0 1 2 4 4 3 5 4 3 3 1 0 0 1 2 3 4 5 5
72 34 39 8 11 16 7 7 3 3 21 51 60 79 47 50 24 55 126 1 3 5 2 1 0 0 1 2 3 4 3 1 0 0 0 0 1 0 2 3 3 3 4 5
67 64 72 40 29 25 31 0 4 1 0 12 76 35 31 51 47 83 198 9 4 4 3 1 0 1 2 4 4 4 3 0 0 0 0 0 2 2 4 4 5 8 8 9
32 86 74 68 29 41 2 0 0 25 28 25 72 88 82 96 111 110 162 60 0 0 0 1 3 2 4 3 3 4 2 0 0 0 0 0 2 3 5 6 9 13 16 18
48 58 43 38 27 18 12 0 98 152 7 1 52 35 70 83 105 28 70 1 0 0 5 4 5 5 6 9 4 5 1 0 0 0 1 1 3 6 8 7 10 16 16 19
4 56 100 56 41 45 18 0 56 75 46 5 21 27 65 78 176 202 1 0 0 0 11 15 8 10 6 10 3 4 2 2 3 2 1 1 4 5 7 10 11 17 22 18
39 40 93 99 55 23 0 0 57 68 19 5 36 55 56 88 9 0 3 7 4 10 18 6 7 9 7 11 15 13 9 5 3 3 2 2 2 5 9 11 17 17 18 19
61 69 83 88 95 60 1 20 48 150 26 5 21 56 32 1 6 7 6 5 9 11 14 10 10 10 11 9 5 6 8 13 6 5 4 5 4 4 9 13 17 16 18 12
120 199 148 96 107 55 61 66 69 0 3 0 1 0 2 5 7 6 9 10 9 10 8 8 5 4 3 2 0 0 4 6 4 2 3 3 3 3 3 6 8 11 21 12
89 91 132 118 28 111 89 27 0 0 0 0 0 3 1 8 9 10 10 11 13 18 9 4 4 3 2 1 0 0 0 1 0 0 0 0 0 0 0 0 2 2 5 9
179 134 94 138 127 40 4 48 31 0 0 0 0 2 2 5 10 7 8 10 16 18 13 4 3 3 2 0 0 0 0 0 0 0 0 0 0 0 0 0 1 3 3 3
130 261 305 311 122 167 135 71 0 0 0 0 0 2 5 5 6 8 17 9 8 12 10 7 3 3 0 0 0 0 0 0 0 0 0 0 0 0 0 0 1 0 0 0